Current weather by "City, St" or "zip code"  
 

Current Conditions: MIDDLETOWN

Partly Cloudy


66.0 F

Last Updated on Sep 28 2022, 05:56 PM EDT
Humidity: 50%
Wind Speed: 5.8 mph
Barometer 30.19 in
Dewpoint: 46.9 F
Visibility: 10.00 mi
Precip: --
Heat Index: NA
Wind Chill: NA
Current conditions at:

MIDDLETOWN (KMDT)

Lat: 40.2 Lon: 76.77

Local Radar Image active severe weather and emergency alerts image image weather storm and storm spotter reports image weather observation monitoring service image
Local
Radar
Active
Alerts
Storm Reports Obs
Monitoring

Sign-up For Email & Text Message Weather Alert Notification Services



Advertise Here

Observation History for MIDDLETOWN


Time Wind
(mph)
Vis
(mi)
Weather Precip (in) Temperature (F) Relative
Humidity
Wind
Chill
(F)
Heat
Index
(F)
Pressure
Air Dwpt altimeter
(in)
sea level
(mb)
Rmks
05:56 PM EDT 5.8 10.00 Partly Cloudy -- 66.0 46.9 50% NA NA 30.19 1022.4
04:56 PM EDT NW 8.1 10.00 Mostly Cloudy -- 66.0 48.0 52% NA NA 30.17 1021.7
03:56 PM EDT 11.4 10.00 Mostly Cloudy -- 66.9 48.9 52% NA NA 30.17 1021.7
02:56 PM EDT 9.2 10.00 Mostly Cloudy -- 66.0 48.9 54% NA NA 30.16 1021.3
01:56 PM EDT 11.4 10.00 Mostly Cloudy -- 64.0 48.9 58% NA NA 30.17 1021.7
12:56 PM EDT 9.2 10.00 Mostly Cloudy -- 64.0 48.9 58% NA NA 30.17 1021.7
11:56 AM EDT W 9.2 10.00 Partly Cloudy -- 63.0 48.9 60% NA NA 30.18 1022.0
10:56 AM EDT 10.3 10.00 Partly Cloudy -- 60.1 48.0 64% NA NA 30.17 1021.7
10:11 AM EDT 11.4 10.00 Partly Cloudy -- 57.9 46.9 67% NA NA 30.17 1021.7
09:56 AM EDT 9.2 10.00 Mostly Cloudy -- 57.0 46.9 69% NA NA 30.16 1021.3
08:56 AM EDT 8.1 10.00 Cloudy -- 53.1 45.0 74% NA NA 30.15 1021.0
07:56 AM EDT 10.00 Cloudy -- 51.1 44.1 77% NA NA 30.13 1020.3
07:41 AM EDT 10.00 Mostly Cloudy -- NULL % NA NA M
06:56 AM EDT 0.0 10.00 Mostly Clear -- 48.0 44.1 86% NA NA 30.12 1019.7
05:56 AM EDT 0.0 10.00 Clear -- 48.9 43.0 80% NA NA 30.09 1019.0
04:56 AM EDT 5.8 10.00 Clear -- 52.0 43.0 71% NA NA 30.08 1018.6
03:56 AM EDT W 6.9 10.00 Clear -- 51.1 43.0 74% NA NA 30.07 1018.3
02:56 AM EDT W 8.1 10.00 Clear -- 53.1 43.0 69% NA NA 30.06 1018.0
01:56 AM EDT 0.0 10.00 Clear -- 50.0 44.1 80% NA NA 30.06 1018.0
12:56 AM EDT 0.0 10.00 Clear -- 52.0 43.0 71% NA NA 30.05 1017.6
11:56 PM EDT NW 10.3 10.00 Clear -- 53.1 44.1 71% NA NA 30.04 1017.3
10:56 PM EDT W 10.3 10.00 Clear -- 55.9 44.1 64% NA NA 30.03 1016.9
09:56 PM EDT NW 10.3 10.00 Mostly Clear -- 54.0 44.1 69% NA NA 30.01 1016.3
08:56 PM EDT NW 6.9 10.00 Mostly Clear -- 55.9 44.1 64% NA NA 29.99 1015.6

Regional Weather Observation


MIDDLETOWN (KMDT)

Partly Cloudy
66.0 F

MUIR AAF/INDIANT (KMUI)

Partly Cloudy
NULL F

()


F

LANCASTER (KLNS)

Mostly Clear
66.0 F

REEDSVILLE (KRVL)

NULL
62.6 F

STATE COLLEGE (KUNV)

Mostly Cloudy
62.6 F

Advertise Here


Advertise Here